This is the latest recevied weather packets stored in our database for station/object KD4EED. If no packets are shown the sender has not sent any weather packets the latest 10 day(s).
| Time | Temp. | Humidity | Pressure | Rain* | Wind** | Luminosity | Snow |
|---|---|---|---|---|---|---|---|
| 1787881197 | 27.78° C | 66% | 1006.5 hPa | - | - | 16 W/m² | - |
| 1787880893 | 27.78° C | 66% | 1006.4 hPa | - | - | 16 W/m² | - |
| 1787880592 | 27.78° C | 65% | 1006.6 hPa | - | - | 29 W/m² | - |
| 1787880290 | 27.78° C | 64% | 1006.5 hPa | - | - | 33 W/m² | - |
| 1787879985 | 28.33° C | 64% | 1006.6 hPa | - | - | 34 W/m² | - |
| 1787879681 | 28.33° C | 63% | 1006.6 hPa | - | - | 40 W/m² | - |
| 1787879376 | 28.89° C | 62% | 1006.7 hPa | - | - | 41 W/m² | - |
| 1787879072 | 28.89° C | 60% | 1006.7 hPa | - | - | 45 W/m² | - |
| 1787878767 | 29.44° C | 60% | 1006.8 hPa | - | - | 50 W/m² | - |
| 1787878466 | 29.44° C | 59% | 1006.9 hPa | - | - | 60 W/m² | - |
| 1787878163 | 30° C | 58% | 1006.7 hPa | - | - | 69 W/m² | - |
| 1787877858 | 30° C | 58% | 1006.8 hPa | - | - | 105 W/m² | - |
| 1787877553 | 30° C | 59% | 1006.7 hPa | - | - | 96 W/m² | - |
| 1787877249 | 30° C | 61% | 1006.7 hPa | - | - | 123 W/m² | - |
| 1787876949 | 30° C | 62% | 1006.7 hPa | - | - | 205 W/m² | - |
| 1787876645 | 29.44° C | 64% | 1006.6 hPa | - | - | 218 W/m² | - |
| 1787876344 | 29.44° C | 64% | 1006.6 hPa | - | - | 150 W/m² | - |
| 1787876042 | 29.44° C | 65% | 1006.7 hPa | - | - | 174 W/m² | - |
| 1787875738 | 29.44° C | 66% | 1006.6 hPa | - | - | 145 W/m² | - |
| 1787875437 | 29.44° C | 67% | 1006.7 hPa | - | - | 197 W/m² | - |
| 1787875136 | 29.44° C | 68% | 1006.8 hPa | - | - | 305 W/m² | - |
| 1787874831 | 29.44° C | 69% | 1006.9 hPa | - | - | 136 W/m² | - |
| 1787874530 | 30° C | 68% | 1006.7 hPa | - | - | 125 W/m² | - |
| 1787874225 | 30° C | 65% | 1006.8 hPa | - | - | 170 W/m² | - |
| 1787873920 | 30.56° C | 64% | 1006.7 hPa | - | - | 195 W/m² | - |
* Rain since midnight (hover to see other rain measurements)
** Current wind speed in m/s (hover to see current wind gust speed)